FW0683 Weather Reports


time (UTC)temp
F
wind
direction
speed
knots
gust
knots
rain 1hr
in
rain 24hr
in
rain mn
in
humidity
%
barometer
mb
20260503010042 46 113 0.0 0.0 0.00 0.19 0.19 93 1015.1
20260503004541 46 113 0.0 0.0 0.00 0.19 0.19 93 1014.9
20260503003041 46 113 0.0 0.0 0.00 0.19 0.19 93 1014.9
20260503001541 46 113 0.0 0.0 0.00 0.19 0.19 92 1014.8
20260503000057 47 113 0.0 0.0 0.00 0.19 0.19 92 1014.7
20260502234540 47 113 0.0 0.0 0.01 0.19 0.19 92 1014.6
20260502233039 47 113 0.0 0.0 0.02 0.19 0.19 91 1014.5
20260502231549 48 116 0.0 0.0 0.06 0.19 0.19 91 1014.3
20260502230038 48 116 0.0 0.0 0.08 0.19 0.19 91 1014.3
20260502224538 48 116 0.0 0.0 0.07 0.18 0.18 90 1014.5
20260502223038 48 116 0.0 0.0 0.06 0.17 0.17 88 1014.6
20260502221538 49 116 0.0 0.0 0.02 0.13 0.13 86 1014.6
20260502220046 49 116 0.0 0.0 0.00 0.11 0.11 83 1014.2
20260502214536 50 100 0.0 0.0 0.00 0.11 0.11 82 1014.3
20260502213035 50 348 0.0 0.0 0.00 0.11 0.11 82 1014.2
20260502211535 50 17 0.0 0.0 0.00 0.11 0.11 81 1014.4
20260502210035 51 79 0.0 0.0 0.00 0.11 0.11 81 1014.3
20260502204534 51 283 0.0 0.0 0.00 0.11 0.11 81 1014.3
20260502203033 50 319 0.0 0.0 0.00 0.11 0.11 81 1014.2
20260502201535 51 356 0.0 0.0 0.00 0.11 0.11 79 1014.2
20260502200033 52 310 0.0 0.0 0.00 0.11 0.11 76 1014.3
20260502194532 53 323 0.0 0.0 0.00 0.11 0.11 73 1014.3
20260502193032 52 230 0.0 0.9 0.00 0.11 0.11 71 1014.3
20260502191533 52 110 0.0 0.0 0.00 0.11 0.11 70 1014.4
20260502190031 53 112 0.0 0.0 0.00 0.11 0.11 72 1014.5
20260502184529 54 62 0.0 0.0 0.00 0.11 0.11 72 1014.6
20260502183029 55 115 0.0 0.0 0.00 0.11 0.11 71 1014.7
20260502181529 55 136 0.0 0.9 0.00 0.11 0.11 69 1014.6
20260502163027 52 276 0.0 0.0 0.00 0.11 0.11 78 1015.6
20260502161517 52 41 0.0 0.0 0.00 0.11 0.11 80 1015.6
20260502151507 49 357 0.0 0.0 0.00 0.11 0.11 89 1015.9
20260502130107 44 316 0.0 0.0 0.05 0.07 0.07 92 1016.7
20260502123112 42 316 0.0 0.0 0.06 0.07 0.07 92 1016.7
20260502121544 42 313 0.0 0.0 0.04 0.05 0.05 91 1016.9
20260502114542 42 330 0.0 0.0 0.00 0.01 0.01 90 1015.9
20260502113038 42 328 0.0 0.0 0.01 0.01 0.01 91 1015.6
20260502111538 42 328 0.0 0.0 0.01 0.01 0.01 90 1015.6
20260502110046 41 328 0.0 0.0 0.01 0.01 0.01 90 1015.7
20260502104536 41 357 0.0 0.0 0.01 0.01 0.01 89 1015.7
20260502103035 41 19 0.0 0.0 0.00 0.00 0.00 87 1016.0
20260502101534 41 19 0.0 0.0 0.00 0.00 0.00 86 1015.5
20260502091530 42 288 0.0 0.0 0.00 0.00 0.00 79 1015.1
20260502071517 39 15 0.0 0.0 0.00 0.00 0.00 81 1015.9
20260502070017 39 335 0.0 0.0 0.00 0.00 0.00 83 1016.0
20260502064517 38 40 0.0 0.0 0.00 0.00 0.00 85 1015.9
20260502063015 37 40 0.0 0.0 0.00 0.00 0.00 85 1016.0
20260502061514 37 40 0.0 0.0 0.00 0.00 0.00 85 1016.0
20260502060013 37 44 0.0 0.0 0.00 0.00 0.00 82 1015.8
20260502054520 38 44 0.0 0.0 0.00 0.00 0.00 81 1016.0
20260502053008 39 44 0.0 0.0 0.00 0.00 0.00 78 1015.9
20260502051513 39 44 0.0 0.0 0.00 0.00 0.00 78 1016.1
20260502050022 40 44 0.0 0.0 0.00 0.00 0.00 77 1016.1
20260502044504 40 44 0.0 0.0 0.00 0.00 0.00 78 1016.0
20260502043002 39 44 0.0 0.0 0.00 0.00 0.00 78 1016.0
20260502041600 38 44 0.0 0.0 0.00 0.00 0.00 79 1015.7
20260502040107 38 44 0.0 0.0 0.00 0.00 0.00 78 1015.5
20260502034603 38 44 0.0 0.0 0.00 0.00 0.00 76 1015.5
20260502033100 38 44 0.0 0.0 0.00 0.00 0.00 74 1015.5
20260502031553 39 44 0.0 0.0 0.00 0.00 0.00 74 1015.5
20260502030051 39 44 0.0 0.0 0.00 0.00 0.00 71 1015.3
20260502024607 40 44 0.0 0.0 0.00 0.00 0.00 68 1015.2
20260502023047 41 44 0.0 0.0 0.00 0.00 0.00 66 1015.1
20260502021548 41 44 0.0 0.0 0.00 0.00 0.00 63 1015.0
20260502020046 42 44 0.0 0.0 0.00 0.00 0.00 60 1015.0
20260502014545 42 44 0.0 0.0 0.00 0.00 0.00 60 1015.1
20260502013045 43 44 0.0 0.0 0.00 0.00 0.00 58 1015.1
20260502011544 44 44 0.0 0.0 0.00 0.00 0.00 57 1015.0